www.pogodaiklimat.ru

Погода и климат >> Архив погоды >> Россия >> Сахалинская область >> Погиби


ПОГОДА в Погибях

  • Прогноз погоды в Погибях
  • Монитор погоды в Погибях
  • Климат города

АРХИВ ПОГОДЫ в Погибях

Время (UTC), дата Ветер
(напр.,м/с)
 
Видим.   Явления Облачность Т
(С)
Тd
(С)
f
(%)
Тe
(С)
Тes
(С)
Комфортность P
(гПа)
Po
(гПа)
Тmin
(С)
Tmax
(С)
R
(мм)
R24
(мм)
S
(см)
12 12.12 СВ 2-2
{4}
50 км 3/0
[Ci sp]
-26.4 -28.2 85 -33 -33 опасность
обморожения
1022.5 1021.5
15 12.12 СВ 2-2
{2}
50 км 3/0
[Ci sp]
-26.0 -27.8 85 -33 -33 опасность
обморожения
1022.4 1021.4
18 12.12 СВ 2-2
{2}
50 км 3/0
[Ci sp]
-27.5 -28.7 89 -35 -35 опасность
обморожения
1022.2 1021.2
21 12.12 ЮВ 2-2
{2}
50 км 5/0
[Ci sp]
-28.9 -30.1 89 -36 -36 опасность
обморожения
1021.6 1020.6 -29.1 21
00 13.12 ЮВ 2-2
{2}
50 км 4/0
[Ci sp]
-27.5 -30.0 79 -35 -34 опасность
обморожения
1021.2 1020.2
03 13.12 ЮВ 2-2
{2}
50 км 3/0
[Ci sp]
-18.1 -20.7 80 -24 -22 1020.3 1019.4
06 13.12 Ю 2-2
{2}
50 км ясно -18.3 -20.9 80 -24 -24 1019.7 1018.8
09 13.12 З 2-2
{2}
50 км ясно -20.9 -22.8 85 -27 -27 1019.8 1018.8 -18.0
12 13.12 штиль 0
{2}
50 км ясно -26.0 -27.8 85 -26 -26 1019.8 1018.8
15 13.12 штиль 0 50 км 4/0
[Ci sp]
-24.4 -26.2 85 -24 -24 1019.6 1018.6
18 13.12 ЮЗ 2-2
{2}
50 км 6/0
[Ac trans Ci sp]
-21.8 -23.6 85 -28 -28 1019.6 1018.6
21 13.12 ЮЗ 2-2
{2}
50 км 8/0
[Ac trans Ci sp]
-21.6 -23.4 85 -28 -28 1019.6 1018.6 -26.1 21
00 14.12 ЮВ 2-2
{2}
50 км 6/0
[Ac trans Ci sp]
-23.8 -25.6 85 -30 -30 1020.2 1019.2 -23.8
03 14.12 Ю 2-2
{2}
50 км 3/0
[Ac trans Ci sp]
-15.4 -18.8 75 -20 -19 1019.5 1018.6
06 14.12 ЮЗ 2-2
{2}
50 км 3/0
[Ac trans Ci sp]
-15.0 -19.2 70 -20 -20 1019.1 1018.2
09 14.12 ЮЗ 2-2
{2}
50 км 3/0
[Ci sp]
-17.9 -20.5 80 -23 -23 1019.1 1018.2 -14.7
12 14.12 ЮЗ 2-2
{2}
50 км 3/0
[Ci sp]
-18.1 -20.7 80 -24 -24 1018.7 1017.8
15 14.12 ЮЗ 2-2
{2}
50 км 3/0
[Ci sp]
-21.1 -23.6 80 -27 -27 1018.5 1017.5
18 14.12 Ю 2-2
{2}
50 км 3/0
[Ci sp]
-21.9 -23.8 85 -28 -28 1018.2 1017.2
21 14.12 Ю 2-2
{2}
50 км 5/0
[Ac trans Ci sp]
-19.0 -20.9 85 -25 -25 1018.2 1017.2 -22.1 21
00 15.12 Ю 2-2
{2}
50 км 3/0
[Ci sp]
-17.2 -19.8 80 -23 -22 1016.8 1015.9
03 15.12 Ю 2-4
{4}
50 км 3/0
[Ci sp]
-13.7 -18.0 70 -18 -17 1015.9 1015.0
06 15.12 Ю 2-4
{4}
50 км 4/0
[Ci sp]
-12.6 -16.1 75 -17 -17 1015.4 1014.5
09 15.12 Ю 4-6
{6}
50 км 4/0
[Ci sp]
-16.7 -19.3 80 -25 -25 1015.5 1014.6 -12.2
12 15.12 Ю 4-6
{6}
50 км 3/0
[Ci sp]
-16.1 -18.8 80 -24 -24 1014.8 1013.9
15 15.12 Ю 4-6
{6}
50 км 3/0
[Ci sp]
-17.3 -19.2 85 -26 -26 1013.9 1013.0
18 15.12 Ю 4-6
{6}
50 км 4/0
[Ci sp]
-17.5 -19.4 85 -26 -26 1013.0 1012.1
21 15.12 Ю 4 50 км 5/0
[]
-17.1 -19.0 85 -25 -25 1011.9 1011.0
00 16.12 Ю 4-4
{6}
50 км 9/4 600 м
[Cb cap Ac trans Ci sp]
-13.0 -15.7 80 -20 -20 1011.0 1010.1
03 16.12 Ю 2-2
{4}
20 км 9/4 600 м
[Cb cap Ac trans Ci sp]
-10.2 -13.8 75 -15 -14 1009.6 1008.7
06 16.12 ЮВ 2-2
{4}
50 км 8/3 600 м
[Cb cap Ac trans Ci sp]
-10.3 -13.1 80 -15 -15 1008.7 1007.8
09 16.12 СВ 2-2
{2}
50 км 8/3 600 м
[Cb cap Ac trans Ci sp]
-12.0 -14.0 85 -17 -17 1008.3 1007.4 -9.8
12 16.12 В 2-2
{2}
10 км слабый снег 10/0
[As op]
-11.8 -12.4 95 -16 -16 1008.2 1007.3
15 16.12 ЮВ 2-2
{2}
50 км {снег} 10/0
[As op]
-15.0 -15.6 95 -20 -20 1007.5 1006.6
18 16.12 ЮЗ 2-2
{2}
50 км {снег} 5/0
[Ac trans Ci sp]
-16.3 -17.6 90 -22 -22 1007.1 1006.2
21 16.12 В 2-2
{2}
50 км 4/0
[Ac trans]
-21.3 -21.9 95 -27 -27 1006.8 1005.9 -21.5 0.2 22
00 17.12 В 2-2
{2}
4000 м дымка 10/10 300 м
[St]
-20.4 -21.0 95 -26 -26 1007.0 1006.1
03 17.12 Ю 2-2
{2}
4000 м дымка 9/8 300 м
[St Ac trans]
-18.3 -19.5 90 -24 -24 1005.4 1004.5
06 17.12 Ю 2-2
{2}
20 км 9/5 300 м
[St Ac trans]
-16.7 -17.3 95 -22 -22 1004.4 1003.5
09 17.12 ЮВ 2-2
{2}
20 км 9/5 300 м
[St Ac trans]
-16.9 -17.5 95 -22 -22 1004.0 1003.1 -16.5
12 17.12 Ю 2-2
{2}
50 км 6/0
[Ac trans Ci sp]
-20.3 -21.5 90 -26 -26 1002.8 1001.9
15 17.12 Ю 2-2
{2}
50 км 4/0
[Ci sp]
-22.1 -23.4 89 -28 -28 1001.2 1000.3
18 17.12 Ю 2-2
{2}
50 км 5/0
[Ci sp]
-24.6 -25.9 89 -31 -31 опасность
обморожения
999.6 998.6
21 17.12 Ю 2-2
{2}
50 км 5/0
[Ac trans Ci sp]
-23.5 -24.7 90 -30 -30 998.3 997.4 -24.9 22
00 18.12 ЮВ 2-2
{2}
20 км 9/0
[Ac trans Ci sp]
-21.7 -23.0 89 -28 -28 997.6 996.7
03 18.12 ЮЗ 2-2
{2}
50 км 8/0
[Ac trans Ci sp]
-13.8 -14.4 95 -19 -18 996.3 995.4
06 18.12 З 2-2
{4}
50 км 8/0
[Ac trans Ci sp]
-14.0 -14.6 95 -19 -19 994.1 993.2
09 18.12 ЮЗ 2-2
{4}
50 км 8/0
[Ac trans Ci sp]
-15.9 -17.8 85 -21 -21 994.2 993.3 -13.5
12 18.12 ЮЗ 2-4
{4}
50 км 5/0
[Ac trans Ci sp]
-16.3 -18.9 80 -22 -22 993.6 992.6
15 18.12 ЮЗ 4-4
{6}
50 км 4/0
[Ac trans Ci sp]
-17.1 -20.5 75 -25 -25 992.4 991.5
18 18.12 Ю 6-6
{8}
50 км 5/0
[Ac trans Ci sp]
-17.9 -20.5 80 -28 -28 991.9 991.0
21 18.12 Ю 6-6
{8}
50 км 5/0
[Ac trans Ci sp]
-18.1 -20.7 80 -29 -29 991.1 990.2 -18.4 22
00 19.12 ЮЗ 6-6
{8}
50 км 8/0
[Ac trans Ci sp]
-16.3 -20.5 70 -26 -26 988.6 987.7
03 19.12 ЮЗ 6-8
{10}
4000 м снег {метель} 10/0
[As op]
-15.0 -16.3 90 -25 -24 987.2 986.3
06 19.12 ЮЗ 6-8
{10}
4000 м снег {метель} 10/0
[As op]
-13.4 -14.7 90 -23 -23 987.2 986.3
09 19.12 З 6-8
{10}
4000 м снег {метель} 10/0
[As op]
-12.0 -13.2 91 -21 -21 987.2 986.3 -11.8 0.9

 

Местоположение метеостанции Погиби (Сахалинская область, Россия): широта 52.22 долгота 141.60 высота над уровнем моря 6 м.

В архиве по умолчанию представлена погода в Погибях за последнюю неделю. Архивные данные за месяц целиком и за предыдущие месяцы, начиная с января 2011 года, Вы можете получить, выбрав интересующий диапазон дат из раскрывающегося списка и нажав кнопку "Ввод!".


*Определитесь, кто Вы:
робот инопланетянин человек

Внимание! Время в таблицах - всемирное. Для получения местного времени необходимо прибавить поправку, которая в Погибях равна 11 ч.

Смотрите также архив погоды в соседних городах и на ближайших метеорологических станциях:

Погода в Джаоре (Хабаровский край, Россия) (57 км)
Погода в Богородском (Хабаровский край, Россия) (84 км)
Погода в Вал (Сахалинская область, Россия) (96 км)
Погода в Ныше (Сахалинская область, Россия) (108 км)
Погода в Ногликах (Сахалинская область, Россия) (108 км)
Погода в Мариинском (Хабаровский край, Россия) (116 км)
Погода в Николаевск-на-Амуре (Хабаровский край, Россия) (120 км)
Погода в Байдукове (Хабаровский край, Россия) (121 км)
Погода в Александровск-Сахалинском (Сахалинская область, Россия) (151 км)
Погода в Москальво (Сахалинская область, Россия) (162 км)

Пояснения к столбцам:

Ветер - указаны скорость ветра в м/с - средняя за 10 мин, порывы в срок и между сроками (в фигурных скобках) и направление, откуда дует ветер: С - северный, СВ - северо-восточный, В - восточный, ЮВ - юго-восточный, Ю - южный, ЮЗ - юго-западный, З - западный, СЗ - северо-западный.
Видимость - горизонтальная дальность видимости в метрах или километрах. При видимости от 1 до 10 км при отсутствии осадков обычно наблюдается дымка, при ухудшении видимости до 1 км и менее - туман. В сухую погоду видимость может ухудшаться дымом, пылью или мглою.
Явления - указаны атмосферные явления, наблюдавшиеся в срок или в последний час перед сроком; фигурными скобками обозначены явления, наблюдавшиеся между сроками (за 1-3 часа до срока); квадратными скобками обозначены град или гололедные отложения с указанием их диаметра в мм.
Облачность - указаны через наклонную черту общая и нижняя облачность в баллах и высота нижней границы облаков в метрах; квадратными скобками обозначены формы облаков: Ci - перистые, Cs - перисто-слоистые, Cc - перисто-кучевые, Ac - высококучевые, As - высокослоистые, Sc - слоисто-кучевые, Ns - слоисто-дождевые, Cu - кучевые, Cb - кучево-дождевые. Подробнее классификацию облаков см. в Атласе облаков (PDF).
T - Температура воздуха - температура, измеренная на высоте 2 м над землей.
Td - Температура точки росы - температура, при понижении до которой содержащийся в воздухе водяной пар достигнет насыщения.
f - Относительная влажность воздуха - влажноcть воздуха, измеренная на высоте 2 м над землей.
Te - Эффективная температура - температура, которую ощущает одетый по сезону человек в тени. Характеристика душности погоды. При расчете учитывается влияние влажности воздуха и скорости ветра на теплоощущения человека.
Tes - Эффективная температура на солнце - температура, которую ощущает человек, с поправкой на солнечный нагрев. Характеристика знойности погоды. Зависит от высоты солнца над горизонтом, облачности и скорости ветра. Ночью, в пасмурную погоду, а также при ветре 12 м/с и более поправка равна нулю.
P - Атмосферное давление - приведенное к уровню моря атмосферное давление.
Po - Атмосферное давление - измеренное на уровне метеостанции атмосферное давление.
Tmin - Минимальная температура - минимум температуры воздуха на высоте 2 м над землей.
Tmax - Максимальная температура - максимум температуры воздуха на высоте 2 м над землей.
R - Количество осадков - Количество выпавших осадков за период времени, мм. При наведении курсора мыши на число - период времени, за который выпало указанное количество осадков.
R24 - Количество осадков - Количество выпавших осадков за 24 часа, мм.
S - Снежный покров - Высота снежного покрова, см. При наведении курсора мыши на число - состояние снежного покрова и степень покрытия местности в баллах.